Regional Weather Roundup
Issued by NWS Bismarck, ND

Home | Current Version | Previous Version | Text Only | Print | Product List | Glossary On
Versions: 1 2 3 4 5 6 7 8 9 10 11 12 13 14 15 16 17 18 19 20 21 22 23 24 25 26 27 28 29 30 31 32 33 34 35 36 37 38 39 40 41 42 43 44 45 46 47 48 49 50
000
ASUS43 KBIS 031710
RWRBIS

NWR BROADCAST TEXT
NATIONAL WEATHER SERVICE BISMARCK ND
1200 PM CDT FRI JUL 03 2015

NOTE: "FAIR" INDICATES FEW OR NO CLOUDS BELOW 12,000 FEET WITH NO
SIGNIFICANT WEATHER AND/OR OBSTRUCTIONS TO VISIBILITY.


CITY           SKY/WX    TMP DP  RH WIND       PRES   REMARKS
WILLISTON      SUNNY     78  62  57 VRB5      29.99F HAZE
MINOT          CLOUDY    75  64  68 S5        29.98F HAZE
MINOT AFB      SUNNY     79  72  81 VRB1      29.97F HAZE
BISMARCK       PTSUNNY   78  63  59 W6        30.00F HAZE
DICKINSON      SUNNY     79  60  52 S5        30.01S HAZE
GARRISON         N/A     75  66  73 S6        29.99F
HETTINGER ARPT SUNNY     77  58  51 SE5       30.04F
JAMESTOWN      CLOUDY    75  66  73 N7        29.97S HAZE
BEACH          FAIR      77  59  53 SE7       30.03S HAZE
CROSBY         FAIR      73  70  88 CALM      30.00S FOG
HARVEY         FAIR      75  63  64 E3        29.99S HAZE
HAZEN          FAIR      75  59  57 CALM      30.01S HAZE
LINTON         FAIR      75  68  78 N3        30.00S HAZE
MANDAN         FAIR      77  64  65 CALM      30.02S
OAKES            N/A     75  72  88 NW7       29.97S FOG
STANLEY        FAIR      73  72  94 CALM      30.01F FOG
$$

CITY           SKY/WX    TMP DP  RH WIND       PRES   REMARKS
GRAND FORKS    MOSUNNY   77  64  64 NW6       29.93S HAZE
GRAND FORKS AF MOSUNNY   78  64  61 N6        29.94S HAZE
DEVILS LAKE    SUNNY     75  63  64 NW5       29.96F
FARGO          MOSUNNY   79  66  64 N6        29.93S HAZE
CANDO          FAIR      77  63  61 CALM      29.98S HAZE
CAVALIER       FAIR      73  63  68 N5        29.94F HAZE
GRAFTON        FAIR      75  66  73 VRB7      29.95S HAZE
GWINNER          N/A    N/A N/A N/A MISG        N/A
LANGDON        FAIR      75  59  57 N5        29.98S HAZE
ROLLA            N/A     73  59  60 CALM      30.00S
WALHALLA       FAIR      75  66  73 MISG      29.95S HAZE
$$

CITY           SKY/WX    TMP DP  RH WIND       PRES   REMARKS
ABERDEEN       MOSUNNY   77  64  64 VRB3      29.97F HAZE
MOBRIDGE       MOSUNNY   77  66  68 W6        29.98S HAZE
BUFFALO          N/A     80  58  46 S5        29.98F
RAPID CITY     SUNNY     76  59  55 SE8       30.07F
GLASGOW        SUNNY     78  59  51 S6        29.97F HAZE
SIDNEY         SUNNY     79  61  53 CALM      29.99F
WOLF POINT     SUNNY     78  61  55 E5        29.97F HAZE
GLENDIVE       SUNNY     81  59  47 S6        30.00F
MILES CITY     SUNNY     80  57  45 VRB3      29.99F
BAKER          SUNNY     79  56  45 S7        30.04F
$$

CITY           SKY/WX    TMP DP  RH WIND       PRES   REMARKS
BILLINGS       MOSUNNY   79  51  37 CALM      30.02F
GREAT FALLS    SUNNY     84  51  31 VRB3      29.97F
REGINA         CLOUDY    79  63  57 S10       29.97S SMOKE
$$



USA.gov is the U.S. government's official web portal to all federal, state and local government web resources and services.